Flag for Russia Weather past 2 weeks in Kaliningrad, Russia

Now
36 °F

More clouds than sun.


Feels Like: 26 °F
Forecast: 29 / 36 °F
Wind: 15 mph from Southwest

Location: Kaliningrad/Khrabrovo Airport

Current Time: Jan 29, 2015 at 1:15:00 PM

Latest Report: Jan 29, 2015 at 12:30 PM


Visibility: N/A

Pressure: 29.21 "Hg

Humidity: 81%

Dew point: 30 °F

Location of KaliningradLocation

Historic Weather in Kaliningrad — Graph

°F

Kaliningrad temperature yesterday

Maximum temperature yesterday: 36 °F (at 10:00 AM)
Minimum temperature yesterday: 30 °F (at 12:00 AM)
Average temperature yesterday: 33 °F

Past Weeks' High & Low Weather Summary

 TemperatureHumidityPressure
High46 °F (Jan 14, 12:30 PM)100% (Jan 19, 9:00 PM)30.21 "Hg (Jan 19, 9:00 PM)
Low25 °F (Jan 18, 8:00 PM)62% (Jan 16, 1:00 PM)29.18 "Hg (Jan 29, 5:30 AM)
Average33 °F86%29.95 "Hg
* Reported Jan 14 12:00 Noon — Jan 29 12:00 Noon, Kaliningrad, Weather by CustomWeather, © 2014

Note: Actual official high and low records may vary slightly from our data, if they occured in-between our weather recording intervals... More about our weather records

Advertising

Kaliningrad weather history for previous 24 hours

 ConditionsComfort  
Time TempWeatherWind HumidityBarometerVisibility
12:00 PM
Jan 29
36 °FMore clouds than sun.15 mph81%29.21 "HgN/A
11:30 AM36 °FMostly cloudy.13 mph81%29.18 "HgN/A
11:00 AM36 °FMostly cloudy.13 mph81%29.18 "HgN/A
10:30 AM36 °FMostly cloudy.13 mph87%29.18 "HgN/A
10:00 AM34 °FMostly cloudy.13 mph93%29.18 "HgN/A
9:30 AM34 °FSprinkles. Mostly cloudy.13 mph93%29.18 "Hg5 mi
9:00 AM34 °FSnow flurries. Mostly cloudy.13 mph93%29.18 "Hg3 mi
8:30 AM34 °FSnow flurries. Mostly cloudy.15 mph87%29.18 "Hg2 mi
8:00 AM34 °FSnow flurries. Mostly cloudy.13 mph87%29.18 "Hg2 mi
7:30 AM34 °FSnow flurries. Mostly cloudy.13 mph87%29.18 "Hg2 mi
7:00 AM34 °FSnow flurries. Mostly cloudy.15 mph87%29.18 "Hg5 mi
6:30 AM34 °FSnow flurries. Mostly cloudy.15 mph87%29.18 "Hg2 mi
6:00 AM34 °FSprinkles. Mostly cloudy.15 mph75%29.18 "Hg6 mi
5:30 AM34 °FMostly cloudy.17 mph75%29.18 "HgN/A
5:00 AM34 °FMostly cloudy.17 mph75%29.21 "HgN/A
4:30 AM34 °FMostly cloudy.17 mph75%29.21 "HgN/A
4:00 AM34 °FMostly cloudy.15 mph75%29.21 "HgN/A
3:00 AM34 °FMostly cloudy.15 mph81%29.24 "HgN/A
2:00 AM34 °FMostly cloudy.15 mph81%29.30 "HgN/A
1:00 AM32 °FMostly cloudy.15 mph87%29.33 "HgN/A
12:00 AM32 °FMostly cloudy.13 mph87%29.39 "HgN/A
11:30 PM
Jan 28
34 °FMostly cloudy.10 mph81%29.42 "HgN/A
11:00 PM34 °FOvercast.13 mph81%29.45 "HgN/A
10:30 PM32 °FOvercast.10 mph87%29.47 "HgN/A
10:00 PM34 °FOvercast.13 mph81%29.47 "HgN/A
9:30 PM34 °FOvercast.15 mph81%29.50 "HgN/A
9:00 PM32 °FPassing clouds.13 mph87%29.53 "HgN/A
8:30 PM34 °FOvercast.8 mph81%29.53 "HgN/A
8:00 PM34 °FMostly cloudy.10 mph81%29.56 "HgN/A
7:30 PM34 °FMostly cloudy.10 mph81%29.56 "HgN/A
7:00 PM32 °FMore clouds than sun.10 mph87%29.59 "HgN/A
6:30 PM32 °FSnow flurries. Broken clouds.10 mph87%29.59 "Hg6 mi
6:00 PM34 °FSprinkles. Overcast.10 mph81%29.62 "Hg6 mi
5:30 PM34 °FOvercast.10 mph75%29.65 "HgN/A
5:00 PM34 °FOvercast.8 mph75%29.65 "HgN/A
4:30 PM34 °FOvercast.10 mph81%29.68 "HgN/A
4:00 PM34 °FOvercast.8 mph87%29.68 "HgN/A
3:30 PM34 °FMore clouds than sun.8 mph87%29.68 "HgN/A
3:00 PM36 °FMore clouds than sun.8 mph81%29.68 "HgN/A
2:30 PM36 °FMore clouds than sun.6 mph87%29.71 "HgN/A
2:00 PM36 °FBroken clouds.8 mph87%29.71 "HgN/A
1:30 PM36 °FBroken clouds.8 mph87%29.74 "HgN/A
1:00 PM36 °FSprinkles. Mostly cloudy.8 mph87%29.74 "HgN/A
Weather by CustomWeather, © 2014

See weather overviewHow to use our weather pages